Regional Weather Roundup
Issued by NWS Upton, NY

Current Version | Previous Version | Text Only | Print | Product List | Glossary On
Versions: 1 2 3 4 5 6 7 8 9 10 11 12 13 14 15 16 17 18 19 20 21 22 23 24 25 26 27 28 29 30 31 32 33 34 35 36 37 38 39 40 41 42 43 44 45 46 47 48 49 50
000
ASUS41 KOKX 020418
RWROKX

REGIONAL WEATHER ROUNDUP
NATIONAL WEATHER SERVICE NEW YORK NY
1200 AM EDT THU JUL 02 2015

NOTE: "FAIR" INDICATES FEW OR NO CLOUDS BELOW 12,000 FEET WITH NO
SIGNIFICANT WEATHER AND/OR OBSTRUCTIONS TO VISIBILITY.

NYZ071-072-176-178-NJZ106-104-020500-
NEW YORK CITY METRO AREA


CITY           SKY/WX    TMP DP  RH WIND       PRES   REMARKS
CENTRAL PARK   MOCLDY    77  58  51 W7        29.90R
LAGUARDIA APRT CLOUDY    78  58  49 W12G20    29.86R
KENNEDY INTL   CLOUDY    79  58  48 W13       29.87S
NEWARK/LIBERTY CLOUDY    76  60  57 W9        29.86F
BRNX BOT. GARD   N/A     75  59  57 W7        29.87F
TETERBORO      MOCLDY    74  59  59 W6        29.86R
$$

NYZ177-179-078>081-020500-
LONG ISLAND NEW YORK

CITY           SKY/WX    TMP DP  RH WIND       PRES   REMARKS
FARMINGDALE    CLOUDY    76  59  55 W3        29.87R
ISLIP          CLOUDY    74  59  59 W5        29.85R
SHIRLEY        MOCLDY    71  63  75 CALM      29.87R
WESTHAMPTON    MOCLDY    69  64  84 W5        29.87R
MONTAUK POINT    N/A     72  66  81 W5        29.86R
$$

NYZ052-065-067-020500-
HUDSON VALLEY

CITY           SKY/WX    TMP DP  RH WIND       PRES   REMARKS
WHITE PLAINS   MOCLDY    69  61  75 CALM      29.87R
NEWBURGH       CLEAR     64  63  94 W8        29.89S
MONTGOMERY     CLEAR     62  59  90 SW5       29.88S
POUGHKEEPSIE   CLEAR     66  60  81 CALM      29.86S
ALBANY         PTCLDY    66  56  70 W13       29.85R
$$

NJZ001-105-106-008-010-013-015-019>022-104-020500-
NEW JERSEY

CITY           SKY/WX    TMP DP  RH WIND       PRES   REMARKS
NEWARK/LIBERTY CLOUDY    76  60  57 W9        29.86F
TETERBORO      MOCLDY    74  59  59 W6        29.86R
CALDWELL       MOCLDY    71  59  65 S5        29.88R
MORRISTOWN     PTCLDY    72  59  64 W5        29.88S
SOMERVILLE     PTCLDY    65  61  87 CALM      29.86F
SUSSEX         CLEAR     64  60  87 CALM      29.89S
ANDOVER          N/A     64  61  90 CALM      29.90S
TRENTON        MOCLDY    73  58  59 SW3       29.89R
MILLVILLE      LGT RAIN  73  69  87 S5        29.91R
ATLANTIC CITY  LGT RAIN  69  67  93 NE3       29.91R
WRIGHTSTOWN    MOCLDY    69  62  77 CALM      29.88R
TOMS RIVER     MOCLDY    66  63  88 CALM      29.90R
BELMAR         MOCLDY    70  61  73 SW6       29.89R
$$

PAZ047>061-062-071-020500-
EASTERN PENNSYLVANIA

CITY           SKY/WX    TMP DP  RH WIND       PRES   REMARKS
PHILADELPHIA   MOCLDY    78  58  49 W7        29.90R
ALLENTOWN      PTCLDY    69  60  73 NW3       29.90S
SCRANTON       PTCLDY    64  59  83 SE3       29.92R
$$

CTZ002-004>006-009-010-012-RIZ004-006-007-MAZ004-011-015-020500-
SOUTHERN NEW ENGLAND
 IN CT

CITY           SKY/WX    TMP DP  RH WIND       PRES   REMARKS
BRADLEY INTL   PTCLDY    68  57  68 W7        29.84R
HARTFORD       MOCLDY    71  60  68 SW6       29.85R
DANBURY        PTCLDY    64  58  80 SW3       29.89R
WTRBRY/OXFORD  MOCLDY    68  57  68 W3        29.89R
BRIDGEPORT     CLOUDY    75  61  61 W5        29.86R
MERIDEN        MOCLDY    67  61  81 CALM      29.86R
NEW HAVEN      CLOUDY    73  61  65 VRB3      29.85S
CHESTER        FAIR      70  61  73 CALM      29.87S
GROTON         MOCLDY    70  64  81 NW6       29.84R
WILLIMANTIC    CLOUDY    70  59  68 SW5       29.86R

 IN RI

CITY           SKY/WX    TMP DP  RH WIND       PRES   REMARKS
PROVIDENCE     MOCLDY    71  65  81 W6        29.83R
BLOCK ISLAND   PTCLDY    68  63  83 SW9       29.85R
WESTERLY       MOCLDY    70  65  84 CALM      29.85R

 IN MA

CITY           SKY/WX    TMP DP  RH WIND       PRES   REMARKS
BOSTON         MOCLDY    70  60  70 W14G22    29.81R
WORCESTER      MOCLDY    65  56  72 W10       29.86R
WESTFIELD      PTCLDY    65  58  78 CALM      29.84S
PROVINCETOWN   MOCLDY    64   7  10 SW7       29.81S
NANTUCKET      PTCLDY    68  65  90 SW14      29.84R
$$

ANZ330-335-338-340-345-350-353-355-020500-
COASTAL MARINE OBSERVATIONS


STATION/POSITION TIME  SKY/WX   TEMP    WIND        PRES    VSBY  WAVE
                                AIR SEA DIR/SP/G                  HT/PER
                 (UTC)          (F)     (DEG/KT/KT) (MB)    (MI)  (FT/S)
NY HARB ENTRANCE 0350            74 72  280/  6/  8 1011.1          4/ 7
4S FIRE IS       0303               68                N/A           5/ 7
20S FIRE ISLAND  0350            70 67  240/  8/  8 1011.3          4/ 8
GREAT SOUTH BAY  0315            77 75  300/  8/ 10   N/A
23SW MTP         0350            69 66  250/ 12/ 12 1010.7          5/ 8
HUDSON CANYON    NOT AVBL
KINGS POINT      0300            75 66  290/  5/  6 1010.5
CENTRAL LI SOUND NOT AVBL
EASTERN LI SOUND 0300            66 64  320/  4/  6   N/A
ROBBINS REEF     0300            78     280/ 14/ 17 1010.2
$$


>>>>>>>>>>>>>>>>>>>>>>>>>>>> KEY <<<<<<<<<<<<<<<<<<<<<<<<<<<
>                                                          <
>     SKY/WX - SKY CONDITION/PRESENT WEATHER               <
>     TMP    - TEMPERATURE IN FAHRENHEIT                   <
>     DP     - DEWPOINT IN FAHRENHEIT                      <
>     RH     - RELATIVE HUMIDITY IN PERCENT                <
>     WIND   - DIRECTION AND SPEED IN MPH                  <
>     PRES   - MEAN SEA LEVEL PRESSURE IN INCHES OF HG     <
>     WCI    - WIND CHILL INDEX                            <
>     VSB    - VISIBILITY IN MILES                         <
>     HX     - HEAT INDEX                                  <
>     TC     - TEMPERATURE IN CELSIUS                      <
>     VRB    - VARIABLE WIND DIRECTION                     <
>                                                          <
>>>>>>>>>>>>>>>>>>>>>>>>>>>> KEY <<<<<<<<<<<<<<<<<<<<<<<<<<<




USA.gov is the U.S. government's official web portal to all federal, state and local government web resources and services.